| time (UTC) | temp F | wind direction | speed MPH | gust MPH | rain 1hr in | rain 24hr in | rain mn in | humidity % | barometer mb |
| 20260906135003 | 70 | 145 | 5.0 | 9.0 | 0.00 | 0.01 | 0.01 | 59 | 1025.0 |
| 20260906134503 | 71 | 142 | 5.0 | 9.0 | 0.00 | 0.01 | 0.01 | 59 | 1025.1 |
| 20260906134003 | 71 | 137 | 5.0 | 10.0 | 0.00 | 0.01 | 0.01 | 58 | 1025.1 |
| 20260906133503 | 71 | 137 | 5.0 | 10.0 | 0.00 | 0.01 | 0.01 | 57 | 1025.1 |
| 20260906133003 | 71 | 137 | 5.0 | 12.0 | 0.00 | 0.01 | 0.01 | 55 | 1025.0 |
| 20260906132504 | 71 | 141 | 7.0 | 12.0 | 0.00 | 0.01 | 0.01 | 54 | 1025.2 |
| 20260906132216 | 71 | 139 | 6.0 | 11.0 | 0.00 | 0.01 | 0.01 | 55 | 1025.3 |
| 20260906131503 | 71 | 134 | 5.0 | 11.0 | 0.00 | 0.01 | 0.01 | 58 | 1025.3 |
| 20260906131003 | 71 | 125 | 4.0 | 11.0 | 0.00 | 0.01 | 0.01 | 59 | 1025.3 |
| 20260906130503 | 70 | 120 | 5.0 | 14.0 | 0.00 | 0.01 | 0.01 | 60 | 1025.3 |
| 20260906130003 | 71 | 128 | 5.0 | 14.0 | 0.00 | 0.01 | 0.01 | 59 | 1025.4 |
| 20260906125503 | 71 | 137 | 4.0 | 9.0 | 0.00 | 0.01 | 0.01 | 60 | 1025.3 |
| 20260906125003 | 70 | 133 | 5.0 | 9.0 | 0.00 | 0.01 | 0.01 | 60 | 1025.5 |
| 20260906124503 | 70 | 131 | 6.0 | 12.0 | 0.00 | 0.01 | 0.01 | 60 | 1025.5 |
| 20260906124003 | 70 | 126 | 5.0 | 12.0 | 0.00 | 0.01 | 0.01 | 61 | 1025.5 |
| 20260906123503 | 70 | 128 | 4.0 | 12.0 | 0.00 | 0.01 | 0.01 | 61 | 1025.6 |
| 20260906123003 | 70 | 136 | 4.0 | 13.0 | 0.00 | 0.01 | 0.01 | 61 | 1025.6 |
| 20260906122503 | 70 | 132 | 5.0 | 13.0 | 0.00 | 0.01 | 0.01 | 62 | 1025.7 |
| 20260906122003 | 70 | 131 | 5.0 | 11.0 | 0.00 | 0.01 | 0.01 | 61 | 1025.7 |
| 20260906121503 | 70 | 138 | 5.0 | 11.0 | 0.00 | 0.01 | 0.01 | 62 | 1025.8 |
| 20260906121003 | 70 | 145 | 6.0 | 11.0 | 0.00 | 0.01 | 0.01 | 60 | 1025.8 |
| 20260906120503 | 71 | 150 | 6.0 | 11.0 | 0.00 | 0.01 | 0.01 | 60 | 1025.9 |
| 20260906120218 | 71 | 147 | 5.0 | 11.0 | 0.00 | 0.01 | 0.01 | 60 | 1026.0 |
| 20260906115503 | 70 | 140 | 4.0 | 8.0 | 0.00 | 0.01 | 0.01 | 62 | 1026.0 |
| 20260906115003 | 70 | 151 | 4.0 | 10.0 | 0.00 | 0.01 | 0.01 | 64 | 1026.0 |
| 20260906114503 | 69 | 153 | 4.0 | 10.0 | 0.00 | 0.01 | 0.01 | 62 | 1026.1 |
| 20260906114003 | 70 | 132 | 4.0 | 10.0 | 0.00 | 0.01 | 0.01 | 62 | 1026.1 |
| 20260906113503 | 70 | 131 | 4.0 | 10.0 | 0.00 | 0.01 | 0.01 | 60 | 1026.1 |
| 20260906113003 | 70 | 147 | 5.0 | 10.0 | 0.00 | 0.01 | 0.01 | 61 | 1026.1 |
| 20260906112503 | 70 | 152 | 5.0 | 10.0 | 0.00 | 0.01 | 0.01 | 60 | 1026.3 |
| 20260906112003 | 70 | 150 | 5.0 | 9.0 | 0.00 | 0.01 | 0.01 | 60 | 1026.2 |
| 20260906111716 | 70 | 152 | 4.0 | 9.0 | 0.00 | 0.01 | 0.01 | 60 | 1026.1 |
| 20260906111218 | 70 | 148 | 5.0 | 10.0 | 0.00 | 0.01 | 0.01 | 60 | 1026.3 |
| 20260906110503 | 69 | 136 | 4.0 | 9.0 | 0.00 | 0.01 | 0.01 | 60 | 1026.4 |
| 20260906110003 | 69 | 134 | 4.0 | 9.0 | 0.00 | 0.01 | 0.01 | 63 | 1026.4 |
| 20260906105503 | 70 | 149 | 4.0 | 10.0 | 0.00 | 0.01 | 0.01 | 61 | 1026.5 |
| 20260906105003 | 70 | 147 | 3.0 | 10.0 | 0.00 | 0.01 | 0.01 | 62 | 1026.7 |
| 20260906104503 | 69 | 126 | 3.0 | 7.0 | 0.00 | 0.01 | 0.01 | 61 | 1026.7 |
| 20260906104003 | 70 | 146 | 3.0 | 9.0 | 0.00 | 0.01 | 0.01 | 60 | 1026.8 |
| 20260906103503 | 70 | 187 | 3.0 | 9.0 | 0.00 | 0.01 | 0.01 | 62 | 1026.8 |
| 20260906103217 | 70 | 177 | 3.0 | 9.0 | 0.00 | 0.01 | 0.01 | 62 | 1026.8 |
| 20260906102503 | 69 | 147 | 3.0 | 9.0 | 0.00 | 0.01 | 0.01 | 64 | 1026.8 |
| 20260906102003 | 69 | 152 | 3.0 | 9.0 | 0.00 | 0.01 | 0.01 | 63 | 1026.8 |
| 20260906101503 | 68 | 146 | 3.0 | 7.0 | 0.00 | 0.01 | 0.01 | 63 | 1026.8 |
| 20260906101003 | 68 | 137 | 3.0 | 8.0 | 0.00 | 0.01 | 0.01 | 64 | 1026.9 |
| 20260906100718 | 68 | 133 | 3.0 | 8.0 | 0.00 | 0.01 | 0.01 | 62 | 1026.9 |
| 20260906100217 | 68 | 147 | 3.0 | 8.0 | 0.00 | 0.01 | 0.01 | 62 | 1027.0 |
| 20260906095503 | 68 | 160 | 4.0 | 9.0 | 0.00 | 0.01 | 0.01 | 64 | 1027.0 |
| 20260906095003 | 68 | 153 | 4.0 | 8.0 | 0.00 | 0.01 | 0.01 | 67 | 1027.0 |
| 20260906094503 | 68 | 145 | 4.0 | 9.0 | 0.00 | 0.01 | 0.01 | 68 | 1027.0 |
| 20260906094003 | 67 | 150 | 4.0 | 9.0 | 0.00 | 0.01 | 0.01 | 68 | 1027.2 |
| 20260906093503 | 67 | 145 | 4.0 | 9.0 | 0.00 | 0.01 | 0.01 | 70 | 1027.1 |
| 20260906093003 | 66 | 135 | 5.0 | 9.0 | 0.00 | 0.01 | 0.01 | 70 | 1027.1 |
| 20260906092503 | 67 | 133 | 5.0 | 9.0 | 0.00 | 0.01 | 0.01 | 71 | 1027.2 |
| 20260906092003 | 67 | 141 | 4.0 | 9.0 | 0.00 | 0.01 | 0.01 | 71 | 1027.2 |
| 20260906091503 | 66 | 146 | 4.0 | 8.0 | 0.00 | 0.01 | 0.01 | 70 | 1027.1 |
| 20260906091003 | 67 | 144 | 4.0 | 8.0 | 0.00 | 0.01 | 0.01 | 69 | 1027.2 |
| 20260906090718 | 67 | 145 | 4.0 | 8.0 | 0.00 | 0.01 | 0.01 | 70 | 1027.2 |
| 20260906090003 | 67 | 151 | 3.0 | 8.0 | 0.00 | 0.01 | 0.01 | 71 | 1027.2 |
| 20260906085503 | 67 | 154 | 3.0 | 7.0 | 0.00 | 0.01 | 0.01 | 70 | 1027.2 |
| 20260906085003 | 66 | 150 | 3.0 | 8.0 | 0.00 | 0.01 | 0.01 | 71 | 1027.3 |
| 20260906084503 | 66 | 167 | 3.0 | 8.0 | 0.00 | 0.01 | 0.01 | 72 | 1027.4 |
| 20260906084003 | 66 | 164 | 4.0 | 8.0 | 0.00 | 0.01 | 0.01 | 73 | 1027.5 |
| 20260906083505 | 65 | 154 | 4.0 | 8.0 | 0.00 | 0.01 | 0.01 | 72 | 1027.5 |
| 20260906083003 | 65 | 153 | 4.0 | 7.0 | 0.00 | 0.01 | 0.01 | 73 | 1027.4 |
| 20260906082503 | 65 | 146 | 2.0 | 7.0 | 0.00 | 0.01 | 0.01 | 75 | 1027.4 |
| 20260906082003 | 64 | 144 | 2.0 | 7.0 | 0.00 | 0.01 | 0.01 | 75 | 1027.4 |
| 20260906081717 | 64 | 155 | 2.0 | 7.0 | 0.00 | 0.01 | 0.01 | 76 | 1027.4 |
| 20260906081003 | 63 | 165 | 3.0 | 7.0 | 0.00 | 0.01 | 0.01 | 77 | 1027.5 |
| 20260906080503 | 63 | 144 | 3.0 | 7.0 | 0.00 | 0.01 | 0.01 | 77 | 1027.4 |
| 20260906080003 | 63 | 144 | 2.0 | 5.0 | 0.00 | 0.01 | 0.01 | 80 | 1027.3 |
| 20260906075717 | 62 | 152 | 2.0 | 5.0 | 0.00 | 0.01 | 0.01 | 82 | 1027.4 |
| 20260906075003 | 61 | 155 | 2.0 | 5.0 | 0.00 | 0.01 | 0.01 | 84 | 1027.2 |
| 20260906074503 | 61 | 158 | 2.0 | 6.0 | 0.00 | 0.01 | 0.01 | 86 | 1027.3 |
| 20260906074218 | 60 | 163 | 2.0 | 8.0 | 0.00 | 0.01 | 0.01 | 87 | 1027.2 |
| 20260906073717 | 60 | 151 | 3.0 | 8.0 | 0.00 | 0.01 | 0.01 | 87 | 1027.2 |
| 20260906073003 | 59 | 143 | 2.0 | 6.0 | 0.00 | 0.01 | 0.01 | 89 | 1027.2 |
| 20260906072503 | 58 | 134 | 1.0 | 5.0 | 0.00 | 0.01 | 0.01 | 91 | 1027.3 |
| 20260906072003 | 58 | 137 | 1.0 | 3.0 | 0.00 | 0.01 | 0.01 | 92 | 1027.2 |
| 20260906071503 | 57 | 139 | 2.0 | 4.0 | 0.00 | 0.01 | 0.01 | 93 | 1027.1 |
| 20260906071003 | 56 | 150 | 2.0 | 4.0 | 0.00 | 0.01 | 0.01 | 94 | 1027.1 |
| 20260906070503 | 56 | 159 | 2.0 | 5.0 | 0.00 | 0.01 | 0.01 | 95 | 1027.1 |
| 20260906070218 | 56 | 157 | 2.0 | 5.0 | 0.00 | 0.01 | 0.01 | 96 | 1027.0 |
| 20260906065503 | 55 | 155 | 2.0 | 5.0 | 0.00 | 0.01 | 0.01 | 96 | 1027.0 |
| 20260906065218 | 54 | 156 | 3.0 | 4.0 | 0.00 | 0.01 | 0.01 | 96 | 1027.0 |
| 20260906064503 | 54 | 157 | 3.0 | 5.0 | 0.00 | 0.01 | 0.01 | 97 | 1027.1 |
| 20260906064003 | 53 | 161 | 2.0 | 5.0 | 0.00 | 0.01 | 0.01 | 97 | 1027.0 |
| 20260906063503 | 53 | 161 | 1.0 | 4.0 | 0.00 | 0.01 | 0.01 | 97 | 1027.0 |
| 20260906063003 | 52 | 161 | 1.0 | 2.0 | 0.00 | 0.01 | 0.01 | 97 | 1026.8 |
| 20260906062717 | 52 | 161 | 1.0 | 2.0 | 0.00 | 0.01 | 0.01 | 97 | 1026.9 |
| 20260906062003 | 51 | 161 | 1.0 | 2.0 | 0.00 | 0.01 | 0.01 | 97 | 1026.9 |
| 20260906061503 | 50 | 161 | 1.0 | 5.0 | 0.00 | 0.01 | 0.01 | 97 | 1026.9 |
| 20260906061003 | 50 | 161 | 1.0 | 5.0 | 0.00 | 0.01 | 0.01 | 96 | 1026.8 |
| 20260906060503 | 49 | 0 | 0.0 | 0.0 | 0.00 | 0.01 | 0.01 | 96 | 1026.7 |
| 20260906060003 | 49 | 0 | 0.0 | 0.0 | 0.00 | 0.01 | 0.01 | 96 | 1026.8 |
| 20260906055503 | 49 | 0 | 0.0 | 0.0 | 0.00 | 0.01 | 0.01 | 96 | 1026.7 |
| 20260906055003 | 48 | 0 | 0.0 | 0.0 | 0.00 | 0.01 | 0.01 | 96 | 1026.7 |
| 20260906054503 | 48 | 0 | 0.0 | 0.0 | 0.00 | 0.01 | 0.01 | 96 | 1026.7 |
| 20260906054003 | 48 | 0 | 0.0 | 0.0 | 0.00 | 0.01 | 0.01 | 96 | 1026.9 |
| 20260906053503 | 48 | 0 | 0.0 | 0.0 | 0.00 | 0.01 | 0.01 | 96 | 1026.7 |
| 20260906053003 | 48 | 0 | 0.0 | 0.0 | 0.00 | 0.01 | 0.01 | 96 | 1026.8 |
| 20260906052503 | 48 | 0 | 0.0 | 0.0 | 0.00 | 0.01 | 0.01 | 96 | 1026.8 |
| 20260906052003 | 48 | 0 | 0.0 | 0.0 | 0.00 | 0.01 | 0.01 | 95 | 1026.7 |
| 20260906051718 | 48 | 0 | 0.0 | 0.0 | 0.00 | 0.01 | 0.01 | 95 | 1026.6 |
| 20260906051003 | 48 | 0 | 0.0 | 0.0 | 0.00 | 0.01 | 0.01 | 96 | 1026.7 |
| 20260906050503 | 48 | 0 | 0.0 | 0.0 | 0.00 | 0.01 | 0.01 | 96 | 1026.6 |
| 20260906050003 | 48 | 0 | 0.0 | 0.0 | 0.00 | 0.01 | 0.01 | 95 | 1026.6 |
| 20260906045504 | 48 | 0 | 0.0 | 0.0 | 0.00 | 0.01 | 0.01 | 95 | 1026.5 |
| 20260906045003 | 48 | 0 | 0.0 | 0.0 | 0.00 | 0.01 | 0.01 | 95 | 1026.6 |
| 20260906044503 | 48 | 0 | 0.0 | 0.0 | 0.00 | 0.01 | 0.01 | 95 | 1026.5 |
| 20260906044003 | 48 | 0 | 0.0 | 0.0 | 0.00 | 0.01 | 0.01 | 95 | 1026.5 |
| 20260906043718 | 48 | 0 | 0.0 | 0.0 | 0.00 | 0.01 | 0.01 | 95 | 1026.6 |
| 20260906043003 | 48 | 0 | 0.0 | 0.0 | 0.00 | 0.01 | 0.01 | 95 | 1026.5 |
| 20260906042503 | 48 | 0 | 0.0 | 0.0 | 0.00 | 0.01 | 0.01 | 95 | 1026.5 |
| 20260906042217 | 48 | 0 | 0.0 | 0.0 | 0.00 | 0.01 | 0.01 | 95 | 1026.5 |
| 20260906041504 | 48 | 0 | 0.0 | 0.0 | 0.00 | 0.01 | 0.01 | 95 | 1026.5 |
| 20260906041003 | 49 | 0 | 0.0 | 0.0 | 0.00 | 0.01 | 0.01 | 95 | 1026.5 |
| 20260906040718 | 49 | 0 | 0.0 | 0.0 | 0.00 | 0.01 | 0.01 | 95 | 1026.5 |
| 20260906040003 | 49 | 0 | 0.0 | 0.0 | 0.00 | 0.01 | 0.01 | 95 | 1026.5 |
| 20260906035503 | 49 | 0 | 0.0 | 0.0 | 0.01 | 0.01 | 0.01 | 95 | 1026.5 |
| 20260906035003 | 49 | 0 | 0.0 | 0.0 | 0.01 | 0.01 | 0.01 | 95 | 1026.5 |
| 20260906034503 | 49 | 0 | 0.0 | 0.0 | 0.01 | 0.01 | 0.01 | 94 | 1026.6 |
| 20260906034003 | 49 | 0 | 0.0 | 0.0 | 0.01 | 0.01 | 0.01 | 95 | 1026.7 |
| 20260906033503 | 49 | 0 | 0.0 | 0.0 | 0.01 | 0.01 | 0.01 | 95 | 1026.8 |
| 20260906033003 | 49 | 0 | 0.0 | 0.0 | 0.01 | 0.01 | 0.01 | 94 | 1026.8 |
| 20260906032717 | 49 | 0 | 0.0 | 0.0 | 0.01 | 0.01 | 0.01 | 95 | 1026.9 |
| 20260906032003 | 49 | 0 | 0.0 | 0.0 | 0.01 | 0.01 | 0.01 | 94 | 1027.0 |
| 20260906031503 | 49 | 0 | 0.0 | 0.0 | 0.01 | 0.01 | 0.01 | 94 | 1026.9 |
| 20260906031003 | 49 | 0 | 0.0 | 0.0 | 0.01 | 0.01 | 0.01 | 94 | 1027.0 |
| 20260906030503 | 49 | 0 | 0.0 | 0.0 | 0.01 | 0.01 | 0.01 | 94 | 1027.0 |
| 20260906030003 | 49 | 0 | 0.0 | 0.0 | 0.01 | 0.01 | 0.01 | 94 | 1026.9 |
| 20260906025503 | 49 | 0 | 0.0 | 0.0 | 0.00 | 0.00 | 0.00 | 94 | 1027.0 |
| 20260906025003 | 49 | 0 | 0.0 | 0.0 | 0.00 | 0.00 | 0.00 | 94 | 1027.0 |
| 20260906024503 | 49 | 0 | 0.0 | 0.0 | 0.00 | 0.00 | 0.00 | 94 | 1027.0 |
| 20260906024003 | 49 | 0 | 0.0 | 0.0 | 0.00 | 0.00 | 0.00 | 94 | 1027.1 |
| 20260906023503 | 50 | 0 | 0.0 | 0.0 | 0.00 | 0.00 | 0.00 | 94 | 1027.2 |
| 20260906023003 | 50 | 0 | 0.0 | 0.0 | 0.00 | 0.00 | 0.00 | 94 | 1027.2 |
| 20260906022503 | 50 | 0 | 0.0 | 0.0 | 0.00 | 0.00 | 0.00 | 94 | 1027.1 |
| 20260906022003 | 50 | 0 | 0.0 | 0.0 | 0.00 | 0.00 | 0.00 | 94 | 1027.1 |
| 20260906021717 | 50 | 0 | 0.0 | 0.0 | 0.00 | 0.00 | 0.00 | 94 | 1027.1 |
| 20260906021003 | 50 | 0 | 0.0 | 0.0 | 0.00 | 0.00 | 0.00 | 94 | 1027.1 |
| 20260906020717 | 50 | 0 | 0.0 | 0.0 | 0.00 | 0.00 | 0.00 | 94 | 1027.0 |
| 20260906020003 | 50 | 0 | 0.0 | 0.0 | 0.00 | 0.00 | 0.00 | 94 | 1026.7 |
| 20260906015503 | 50 | 0 | 0.0 | 0.0 | 0.00 | 0.00 | 0.00 | 94 | 1026.7 |
| 20260906015003 | 50 | 0 | 0.0 | 0.0 | 0.00 | 0.00 | 0.00 | 94 | 1026.6 |
| 20260906014503 | 50 | 0 | 0.0 | 0.0 | 0.00 | 0.00 | 0.00 | 94 | 1026.6 |
| 20260906014003 | 50 | 0 | 0.0 | 0.0 | 0.00 | 0.00 | 0.00 | 94 | 1026.7 |
| 20260906013503 | 50 | 0 | 0.0 | 0.0 | 0.00 | 0.00 | 0.00 | 93 | 1026.5 |
| 20260906013003 | 51 | 0 | 0.0 | 0.0 | 0.00 | 0.00 | 0.00 | 94 | 1026.5 |
| 20260906012717 | 51 | 0 | 0.0 | 0.0 | 0.00 | 0.00 | 0.00 | 93 | 1026.5 |
| 20260906012003 | 51 | 0 | 0.0 | 0.0 | 0.00 | 0.00 | 0.00 | 93 | 1026.5 |
| 20260906011503 | 51 | 0 | 0.0 | 0.0 | 0.00 | 0.00 | 0.00 | 93 | 1026.5 |
| 20260906011003 | 51 | 0 | 0.0 | 0.0 | 0.00 | 0.00 | 0.00 | 93 | 1026.6 |
| 20260906010503 | 51 | 0 | 0.0 | 0.0 | 0.00 | 0.00 | 0.00 | 93 | 1026.5 |
| 20260906010003 | 51 | 0 | 0.0 | 0.0 | 0.00 | 0.00 | 0.00 | 93 | 1026.5 |
| 20260906005503 | 51 | 0 | 0.0 | 0.0 | 0.00 | 0.00 | 0.00 | 93 | 1026.6 |
| 20260906005003 | 51 | 0 | 0.0 | 0.0 | 0.00 | 0.00 | 0.00 | 93 | 1026.7 |
| 20260906004503 | 51 | 0 | 0.0 | 0.0 | 0.00 | 0.00 | 0.00 | 93 | 1026.8 |
| 20260906004003 | 51 | 0 | 0.0 | 0.0 | 0.00 | 0.00 | 0.00 | 92 | 1026.7 |
| 20260906003503 | 51 | 0 | 0.0 | 0.0 | 0.00 | 0.00 | 0.00 | 93 | 1026.7 |
| 20260906003003 | 51 | 0 | 0.0 | 0.0 | 0.00 | 0.00 | 0.00 | 92 | 1026.7 |
| 20260906002503 | 52 | 0 | 0.0 | 0.0 | 0.00 | 0.00 | 0.00 | 92 | 1026.6 |
| 20260906002003 | 52 | 0 | 0.0 | 0.0 | 0.00 | 0.00 | 0.00 | 92 | 1026.6 |
| 20260906001503 | 52 | 0 | 0.0 | 0.0 | 0.00 | 0.00 | 0.00 | 92 | 1026.6 |
| 20260906001003 | 52 | 0 | 0.0 | 0.0 | 0.00 | 0.00 | 0.00 | 92 | 1026.7 |
| 20260906000503 | 52 | 0 | 0.0 | 0.0 | 0.00 | 0.00 | 0.00 | 92 | 1026.6 |
| 20260906000219 | 52 | 0 | 0.0 | 0.0 | 0.00 | 0.00 | 0.00 | 92 | 1026.7 |
| 20260905235503 | 52 | 0 | 0.0 | 0.0 | 0.00 | 0.00 | 0.00 | 92 | 1026.5 |
| 20260905235003 | 52 | 0 | 0.0 | 0.0 | 0.00 | 0.00 | 0.00 | 92 | 1026.5 |
| 20260905234503 | 52 | 0 | 0.0 | 0.0 | 0.00 | 0.00 | 0.00 | 92 | 1026.6 |
| 20260905234003 | 52 | 0 | 0.0 | 0.0 | 0.00 | 0.00 | 0.00 | 92 | 1026.5 |
| 20260905233503 | 52 | 0 | 0.0 | 0.0 | 0.00 | 0.00 | 0.00 | 91 | 1026.5 |
| 20260905233003 | 52 | 0 | 0.0 | 0.0 | 0.00 | 0.00 | 0.00 | 91 | 1026.5 |
| 20260905232503 | 53 | 0 | 0.0 | 0.0 | 0.00 | 0.00 | 0.00 | 91 | 1026.5 |
| 20260905232217 | 53 | 0 | 0.0 | 0.0 | 0.00 | 0.00 | 0.00 | 91 | 1026.5 |
| 20260905231503 | 53 | 0 | 0.0 | 0.0 | 0.00 | 0.00 | 0.00 | 92 | 1026.5 |
| 20260905231003 | 53 | 0 | 0.0 | 0.0 | 0.00 | 0.00 | 0.00 | 91 | 1026.5 |
| 20260905230503 | 53 | 0 | 0.0 | 0.0 | 0.00 | 0.00 | 0.00 | 91 | 1026.5 |
| 20260905230003 | 53 | 0 | 0.0 | 0.0 | 0.00 | 0.00 | 0.00 | 91 | 1026.6 |
| 20260905225503 | 53 | 0 | 0.0 | 0.0 | 0.00 | 0.00 | 0.00 | 90 | 1026.4 |
| 20260905225003 | 53 | 0 | 0.0 | 0.0 | 0.00 | 0.00 | 0.00 | 90 | 1026.3 |
| 20260905224503 | 53 | 256 | 0.0 | 1.0 | 0.00 | 0.00 | 0.00 | 90 | 1026.4 |
| 20260905224003 | 53 | 256 | 0.0 | 2.0 | 0.00 | 0.00 | 0.00 | 90 | 1026.5 |
| 20260905223503 | 54 | 256 | 0.0 | 2.0 | 0.00 | 0.00 | 0.00 | 90 | 1026.4 |
| 20260905223003 | 54 | 256 | 0.0 | 1.0 | 0.00 | 0.00 | 0.00 | 89 | 1026.3 |
| 20260905222503 | 54 | 256 | 0.0 | 2.0 | 0.00 | 0.00 | 0.00 | 89 | 1026.3 |
| 20260905222003 | 54 | 256 | 0.0 | 2.0 | 0.00 | 0.00 | 0.00 | 89 | 1026.1 |
| 20260905221718 | 54 | 256 | 0.0 | 1.0 | 0.00 | 0.00 | 0.00 | 89 | 1026.2 |
| 20260905221003 | 54 | 256 | 0.0 | 2.0 | 0.00 | 0.00 | 0.00 | 88 | 1026.1 |
| 20260905220503 | 54 | 265 | 0.0 | 2.0 | 0.00 | 0.00 | 0.00 | 88 | 1026.0 |
| 20260905220004 | 55 | 271 | 0.0 | 2.0 | 0.00 | 0.00 | 0.00 | 88 | 1026.0 |
| 20260905215503 | 55 | 0 | 0.0 | 0.0 | 0.00 | 0.00 | 0.00 | 87 | 1026.1 |
| 20260905215003 | 55 | 285 | 0.0 | 1.0 | 0.00 | 0.00 | 0.00 | 87 | 1026.0 |
| 20260905214503 | 55 | 285 | 0.0 | 1.0 | 0.00 | 0.00 | 0.00 | 86 | 1025.8 |
| 20260905214216 | 55 | 285 | 0.0 | 2.0 | 0.00 | 0.00 | 0.00 | 87 | 1025.9 |
| 20260905213503 | 56 | 285 | 1.0 | 3.0 | 0.00 | 0.00 | 0.00 | 86 | 1025.8 |
| 20260905213003 | 56 | 285 | 0.0 | 3.0 | 0.00 | 0.00 | 0.00 | 86 | 1025.7 |
| 20260905212717 | 56 | 285 | 0.0 | 2.0 | 0.00 | 0.00 | 0.00 | 86 | 1025.8 |
| 20260905212003 | 56 | 285 | 0.0 | 2.0 | 0.00 | 0.00 | 0.00 | 86 | 1025.7 |
| 20260905211717 | 56 | 285 | 0.0 | 2.0 | 0.00 | 0.00 | 0.00 | 86 | 1025.8 |
| 20260905211003 | 57 | 285 | 1.0 | 4.0 | 0.00 | 0.00 | 0.00 | 86 | 1025.8 |
| 20260905210503 | 57 | 284 | 1.0 | 4.0 | 0.00 | 0.00 | 0.00 | 86 | 1025.8 |
| 20260905210218 | 57 | 284 | 1.0 | 3.0 | 0.00 | 0.00 | 0.00 | 86 | 1025.9 |
| 20260905205503 | 57 | 282 | 1.0 | 3.0 | 0.00 | 0.00 | 0.00 | 84 | 1025.9 |
| 20260905205003 | 57 | 280 | 1.0 | 3.0 | 0.00 | 0.00 | 0.00 | 84 | 1025.9 |
| 20260905204503 | 57 | 263 | 0.0 | 3.0 | 0.00 | 0.00 | 0.00 | 84 | 1025.8 |
| 20260905204003 | 57 | 258 | 1.0 | 4.0 | 0.00 | 0.00 | 0.00 | 84 | 1025.8 |
| 20260905203503 | 58 | 252 | 1.0 | 4.0 | 0.00 | 0.00 | 0.00 | 83 | 1025.7 |
| 20260905203218 | 58 | 250 | 1.0 | 3.0 | 0.00 | 0.00 | 0.00 | 83 | 1025.7 |
| 20260905202717 | 58 | 250 | 1.0 | 3.0 | 0.00 | 0.00 | 0.00 | 82 | 1025.7 |
| 20260905202218 | 58 | 250 | 0.0 | 3.0 | 0.00 | 0.00 | 0.00 | 82 | 1025.7 |
| 20260905201717 | 58 | 254 | 1.0 | 4.0 | 0.00 | 0.00 | 0.00 | 82 | 1025.8 |
| 20260905201005 | 58 | 268 | 2.0 | 4.0 | 0.00 | 0.00 | 0.00 | 82 | 1025.7 |
| 20260905200503 | 58 | 264 | 2.0 | 5.0 | 0.00 | 0.00 | 0.00 | 82 | 1025.6 |
| 20260905200003 | 58 | 249 | 2.0 | 5.0 | 0.00 | 0.00 | 0.00 | 81 | 1025.5 |
| 20260905195503 | 59 | 240 | 2.0 | 4.0 | 0.00 | 0.00 | 0.00 | 81 | 1025.6 |
| 20260905195004 | 59 | 239 | 1.0 | 4.0 | 0.00 | 0.00 | 0.00 | 80 | 1025.6 |
| 20260905194503 | 59 | 241 | 1.0 | 4.0 | 0.00 | 0.00 | 0.00 | 80 | 1025.5 |
| 20260905194218 | 59 | 239 | 1.0 | 4.0 | 0.00 | 0.00 | 0.00 | 79 | 1025.5 |
| 20260905193503 | 60 | 275 | 1.0 | 3.0 | 0.00 | 0.00 | 0.00 | 79 | 1025.5 |
| 20260905193003 | 60 | 281 | 2.0 | 6.0 | 0.00 | 0.00 | 0.00 | 78 | 1025.4 |
| 20260905192503 | 60 | 280 | 2.0 | 6.0 | 0.00 | 0.00 | 0.00 | 78 | 1025.4 |
| 20260905192217 | 60 | 285 | 2.0 | 6.0 | 0.00 | 0.00 | 0.00 | 78 | 1025.3 |
| 20260905191503 | 60 | 290 | 3.0 | 5.0 | 0.00 | 0.00 | 0.00 | 77 | 1025.2 |
| 20260905191003 | 61 | 282 | 3.0 | 8.0 | 0.00 | 0.00 | 0.00 | 77 | 1025.1 |
| 20260905190503 | 61 | 277 | 4.0 | 9.0 | 0.00 | 0.00 | 0.00 | 76 | 1025.1 |
| 20260905190003 | 61 | 279 | 4.0 | 9.0 | 0.00 | 0.00 | 0.00 | 75 | 1025.2 |
| 20260905185503 | 62 | 281 | 4.0 | 11.0 | 0.00 | 0.00 | 0.00 | 75 | 1025.1 |
| 20260905185003 | 62 | 283 | 4.0 | 11.0 | 0.00 | 0.00 | 0.00 | 75 | 1025.0 |
| 20260905184503 | 62 | 290 | 3.0 | 8.0 | 0.00 | 0.00 | 0.00 | 74 | 1025.1 |
| 20260905184003 | 62 | 298 | 3.0 | 8.0 | 0.00 | 0.00 | 0.00 | 74 | 1024.9 |
| 20260905183718 | 62 | 301 | 3.0 | 8.0 | 0.00 | 0.00 | 0.00 | 73 | 1024.9 |
| 20260905183003 | 62 | 302 | 3.0 | 7.0 | 0.00 | 0.00 | 0.00 | 73 | 1024.8 |
| 20260905182718 | 62 | 303 | 2.0 | 5.0 | 0.00 | 0.00 | 0.00 | 73 | 1024.7 |
| 20260905182003 | 62 | 294 | 2.0 | 5.0 | 0.00 | 0.00 | 0.00 | 73 | 1024.6 |
| 20260905181503 | 62 | 279 | 2.0 | 7.0 | 0.00 | 0.00 | 0.00 | 72 | 1024.5 |
| 20260905181003 | 62 | 284 | 3.0 | 8.0 | 0.00 | 0.00 | 0.00 | 72 | 1024.5 |
| 20260905180503 | 62 | 289 | 3.0 | 8.0 | 0.00 | 0.00 | 0.00 | 72 | 1024.4 |
| 20260905180217 | 62 | 289 | 4.0 | 9.0 | 0.00 | 0.00 | 0.00 | 72 | 1024.5 |
| 20260905175718 | 62 | 285 | 4.0 | 9.0 | 0.00 | 0.00 | 0.00 | 72 | 1024.5 |
| 20260905175003 | 63 | 280 | 4.0 | 8.0 | 0.00 | 0.00 | 0.00 | 72 | 1024.5 |
| 20260905174718 | 63 | 279 | 4.0 | 9.0 | 0.00 | 0.00 | 0.00 | 72 | 1024.4 |
| 20260905174003 | 63 | 282 | 5.0 | 9.0 | 0.00 | 0.00 | 0.00 | 71 | 1024.3 |
| 20260905173503 | 64 | 284 | 4.0 | 9.0 | 0.00 | 0.00 | 0.00 | 71 | 1024.4 |
| 20260905173003 | 64 | 289 | 4.0 | 9.0 | 0.00 | 0.00 | 0.00 | 70 | 1024.4 |
| 20260905172503 | 65 | 289 | 4.0 | 9.0 | 0.00 | 0.00 | 0.00 | 70 | 1024.4 |
| 20260905172003 | 65 | 287 | 5.0 | 11.0 | 0.00 | 0.00 | 0.00 | 70 | 1024.3 |
| 20260905171503 | 65 | 288 | 6.0 | 11.0 | 0.00 | 0.00 | 0.00 | 70 | 1024.4 |
| 20260905171217 | 65 | 288 | 7.0 | 16.0 | 0.00 | 0.00 | 0.00 | 69 | 1024.2 |
| 20260905170718 | 65 | 283 | 8.0 | 17.0 | 0.00 | 0.00 | 0.00 | 69 | 1024.3 |
| 20260905170003 | 65 | 283 | 8.0 | 19.0 | 0.00 | 0.00 | 0.00 | 67 | 1024.1 |
| 20260905165503 | 65 | 287 | 8.0 | 19.0 | 0.00 | 0.00 | 0.00 | 68 | 1024.1 |
| 20260905165217 | 65 | 286 | 7.0 | 13.0 | 0.00 | 0.00 | 0.00 | 69 | 1024.1 |
| 20260905164717 | 65 | 284 | 6.0 | 13.0 | 0.00 | 0.00 | 0.00 | 69 | 1024.0 |
| 20260905164216 | 65 | 286 | 6.0 | 13.0 | 0.00 | 0.00 | 0.00 | 68 | 1023.9 |
| 20260905163717 | 65 | 288 | 5.0 | 10.0 | 0.00 | 0.00 | 0.00 | 68 | 1023.8 |
| 20260905163003 | 65 | 294 | 4.0 | 9.0 | 0.00 | 0.00 | 0.00 | 66 | 1023.7 |
| 20260905162503 | 66 | 295 | 5.0 | 9.0 | 0.00 | 0.00 | 0.00 | 66 | 1023.7 |
| 20260905162003 | 66 | 296 | 6.0 | 15.0 | 0.00 | 0.00 | 0.00 | 64 | 1023.6 |
| 20260905161503 | 66 | 296 | 8.0 | 17.0 | 0.00 | 0.00 | 0.00 | 63 | 1023.6 |
| 20260905161003 | 67 | 289 | 9.0 | 17.0 | 0.00 | 0.00 | 0.00 | 63 | 1023.5 |
| 20260905160503 | 68 | 284 | 9.0 | 18.0 | 0.00 | 0.00 | 0.00 | 63 | 1023.4 |
| 20260905160003 | 67 | 275 | 8.0 | 18.0 | 0.00 | 0.00 | 0.00 | 64 | 1023.3 |
| 20260905155717 | 67 | 276 | 8.0 | 18.0 | 0.00 | 0.00 | 0.00 | 65 | 1023.3 |
| 20260905155003 | 66 | 275 | 8.0 | 16.0 | 0.00 | 0.00 | 0.00 | 68 | 1023.2 |
| 20260905154503 | 66 | 277 | 7.0 | 14.0 | 0.00 | 0.00 | 0.00 | 69 | 1023.2 |
| 20260905154003 | 66 | 279 | 8.0 | 16.0 | 0.00 | 0.00 | 0.00 | 70 | 1023.1 |
| 20260905153503 | 66 | 277 | 8.0 | 16.0 | 0.00 | 0.00 | 0.00 | 70 | 1023.1 |
| 20260905153218 | 66 | 273 | 8.0 | 16.0 | 0.00 | 0.00 | 0.00 | 72 | 1023.2 |
| 20260905152505 | 66 | 270 | 7.0 | 11.0 | 0.00 | 0.00 | 0.00 | 73 | 1023.1 |
| 20260905152003 | 65 | 277 | 6.0 | 12.0 | 0.00 | 0.00 | 0.00 | 73 | 1023.0 |
| 20260905151503 | 66 | 282 | 6.0 | 13.0 | 0.00 | 0.00 | 0.00 | 73 | 1023.0 |
| 20260905151003 | 67 | 287 | 6.0 | 13.0 | 0.00 | 0.00 | 0.00 | 71 | 1022.9 |
| 20260905150503 | 67 | 293 | 7.0 | 16.0 | 0.00 | 0.00 | 0.00 | 68 | 1022.9 |
| 20260905150003 | 67 | 287 | 7.0 | 16.0 | 0.00 | 0.00 | 0.00 | 68 | 1022.7 |
| 20260905145503 | 68 | 277 | 7.0 | 15.0 | 0.00 | 0.00 | 0.00 | 68 | 1022.7 |
| 20260905145003 | 68 | 276 | 7.0 | 13.0 | 0.00 | 0.00 | 0.00 | 69 | 1022.6 |
| 20260905144503 | 67 | 273 | 6.0 | 14.0 | 0.00 | 0.00 | 0.00 | 69 | 1022.5 |
| 20260905144218 | 67 | 277 | 7.0 | 15.0 | 0.00 | 0.00 | 0.00 | 70 | 1022.6 |
| 20260905143503 | 67 | 281 | 9.0 | 17.0 | 0.00 | 0.00 | 0.00 | 69 | 1022.6 |
| 20260905143003 | 67 | 277 | 8.0 | 15.0 | 0.00 | 0.00 | 0.00 | 69 | 1022.6 |
| 20260905142503 | 67 | 268 | 7.0 | 13.0 | 0.00 | 0.00 | 0.00 | 69 | 1022.4 |
| 20260905142218 | 67 | 272 | 6.0 | 13.0 | 0.00 | 0.00 | 0.00 | 70 | 1022.4 |
| 20260905141503 | 66 | 282 | 6.0 | 13.0 | 0.00 | 0.00 | 0.00 | 70 | 1022.3 |
| 20260905141003 | 66 | 280 | 7.0 | 16.0 | 0.00 | 0.01 | 0.00 | 70 | 1022.3 |
| 20260905140716 | 66 | 280 | 8.0 | 16.0 | 0.00 | 0.01 | 0.00 | 70 | 1022.3 |
| 20260905140004 | 66 | 276 | 7.0 | 14.0 | 0.00 | 0.01 | 0.00 | 71 | 1022.2 |
| 20260905135503 | 65 | 278 | 7.0 | 14.0 | 0.00 | 0.01 | 0.00 | 71 | 1022.2 |